This is the latest recevied weather packets stored in our database for station/object YM7KGL-1. If no packets are shown the sender has not sent any weather packets the latest 10 day(s).
| Time | Temp. | Humidity | Pressure | Rain* | Wind** | Luminosity | Snow |
|---|---|---|---|---|---|---|---|
| 1777805966 | 14.44° C | 53% | 1011.6 hPa | - | - | - | - |
| 1777805065 | 14.44° C | 54% | 1011.6 hPa | - | - | - | - |
| 1777804164 | 13.89° C | 54% | 1011.9 hPa | - | - | - | - |
| 1777803264 | 13.89° C | 53% | 1012 hPa | - | - | - | - |
| 1777802364 | 14.44° C | 53% | 1012.2 hPa | - | - | - | - |
| 1777802105 | 14.44° C | 53% | 1012.2 hPa | - | - | - | - |
| 1777801463 | 14.44° C | 53% | 1012.2 hPa | - | - | - | - |
| 1777800726 | 15° C | 53% | 1012.4 hPa | - | - | - | - |
| 1777799826 | 15° C | 53% | 1012.5 hPa | - | - | - | - |
| 1777798926 | 15° C | 53% | 1012.5 hPa | - | - | - | - |
| 1777798026 | 14.44° C | 53% | 1012.7 hPa | - | - | - | - |
| 1777797126 | 13.89° C | 54% | 1012.7 hPa | - | - | - | - |
| 1777796302 | 13.89° C | 54% | 1013 hPa | - | - | - | - |
| 1777795402 | 13.33° C | 53% | 1012.7 hPa | - | - | - | - |
| 1777794502 | 13.89° C | 53% | 1013 hPa | - | - | - | - |
| 1777793601 | 14.44° C | 52% | 1013.2 hPa | - | - | - | - |
| 1777792718 | 15° C | 51% | 1013.3 hPa | - | - | - | - |
| 1777791831 | 12.78° C | 54% | 1013.4 hPa | - | - | - | - |
| 1777790998 | 12.78° C | 54% | 1013.3 hPa | - | - | - | - |
| 1777790900 | 12.78° C | 54% | 1013.4 hPa | - | - | - | - |
| 1777790000 | 12.78° C | 54% | 1013.3 hPa | - | - | - | - |
| 1777789240 | 12.22° C | 54% | 1013.4 hPa | - | - | - | - |
| 1777788339 | 12.22° C | 55% | 1013.3 hPa | - | - | - | - |
| 1777787439 | 11.67° C | 54% | 1013.3 hPa | - | - | - | - |
| 1777786789 | 11.67° C | 55% | 1013.5 hPa | - | - | - | - |
* Rain since midnight (hover to see other rain measurements)
** Current wind speed in m/s (hover to see current wind gust speed)